Date String (YYYY-MM-DD hh:mm:ss) UTC,Instrument flags,Ambient pressure (hPa),Sample flow (lpm),Bypass flow (lpm),Sample temperature (°C),Ambient temperature (°C),ASC tube jacket temperature (°C),LED temperature (°C),Box temperature (°C),Sample RH (%),Span deviation,Mass concentration (μg/m³),Mass concentration (μg/m³),Mass concentration (μg/m³)
DateTimeUTC,F1_M11,P_M11,Q1_M11,Q2_M11,T1_M11,T2_M11,T3_M11,T4_M11,T5_M11,U1_M11,ZSPAN_M11,X2_M11,X0_M11,X1_M11
2022-11-21 15:00:00,,0830.1,4.99,0.00,22.2,20.8,00.0,31.1,24.0,06.9,0000.0,0003.23,0006.24,0003.06
2022-11-21 15:01:00,,0830.1,5.01,0.00,22.2,20.7,00.0,31.1,24.0,06.9,0000.0,0003.22,0006.23,0003.04
2022-11-21 15:02:00,,0830.1,5.01,0.00,22.2,20.7,00.0,31.1,23.9,07.1,0000.0,0003.24,0006.21,0003.09
2022-11-21 15:03:00,,0830.1,4.98,0.00,22.1,20.7,00.0,31.1,23.9,07.1,0000.0,0003.28,0006.23,0003.13
2022-11-21 15:04:00,,0830.1,5.01,0.00,22.1,20.8,00.0,31.1,23.9,07.2,0000.0,0003.34,0006.42,0003.16
2022-11-21 15:05:00,,0830.1,5.01,0.00,22.1,20.8,00.0,31.1,23.9,07.2,0000.0,0003.35,0006.38,0003.17
2022-11-21 15:06:00,,0830.1,4.99,0.00,22.1,20.8,00.0,31.1,23.9,07.0,0000.0,0003.33,0006.30,0003.17
2022-11-21 15:07:00,,0830.2,5.01,0.00,22.1,20.9,00.0,31.1,24.0,07.0,0000.0,0003.32,0006.16,0003.17
2022-11-21 15:08:00,,0830.1,4.99,0.00,22.1,20.9,00.0,31.1,24.0,07.0,0000.0,0003.32,0004.75,0003.16
2022-11-21 15:09:00,,0830.1,5.01,0.00,22.1,20.9,00.0,31.1,24.0,07.1,0000.0,0003.34,0004.96,0003.17
2022-11-21 15:10:00,,0830.1,5.00,0.00,22.1,20.9,00.0,31.1,23.9,07.0,0000.0,0003.33,0006.27,0003.16
2022-11-21 15:11:00,,0830.1,5.01,0.00,22.1,20.9,00.0,31.1,23.9,07.1,0000.0,0003.32,0006.24,0003.14
2022-11-21 15:12:00,,0830.1,4.99,0.00,22.2,20.9,00.0,31.1,24.0,07.1,0000.0,0003.32,0006.20,0003.15
2022-11-21 15:13:00,,0830.1,5.02,0.00,22.2,20.9,00.0,31.1,23.9,07.3,0000.0,0003.31,0006.20,0003.14
2022-11-21 15:14:00,,0830.1,4.99,0.00,22.2,20.9,00.0,31.0,23.9,07.3,0000.0,0003.32,0006.15,0003.15
2022-11-21 15:15:00,,0830.1,5.01,0.00,22.2,20.9,00.0,31.1,24.0,07.1,0000.0,0003.27,0006.01,0003.13
2022-11-21 15:16:00,,0830.1,5.00,0.00,22.2,20.9,00.0,31.1,24.0,07.2,0000.0,0003.26,0007.37,0003.12
2022-11-21 15:17:00,,0830.1,4.99,0.00,22.2,21.0,00.0,31.1,24.0,07.2,0000.0,0003.30,0007.41,0003.15
2022-11-21 15:18:00,,0830.1,5.01,0.00,22.2,21.0,00.0,31.1,24.0,07.1,0000.0,0003.32,0007.40,0003.16
2022-11-21 15:19:00,,0830.1,4.99,0.00,22.2,21.0,00.0,31.1,24.0,07.3,0000.0,0003.34,0007.41,0003.18
2022-11-21 15:20:00,,0830.1,5.02,0.00,22.2,21.0,00.0,31.1,24.0,07.3,0000.0,0003.32,0007.79,0003.16
2022-11-21 15:21:00,,0830.1,4.99,0.00,22.2,21.0,00.0,31.1,24.0,07.3,0000.0,0003.30,0007.18,0003.14
2022-11-21 15:22:00,,0830.2,5.01,0.00,22.2,21.0,00.0,31.1,24.0,07.6,0000.0,0003.28,0007.14,0003.13
2022-11-21 15:23:00,,0830.1,5.00,0.00,22.2,21.0,00.0,31.1,24.0,07.6,0000.0,0003.28,0007.14,0003.11
2022-11-21 15:24:00,,0830.2,5.00,0.00,22.2,21.0,00.0,31.1,24.0,07.4,0000.0,0003.27,0007.12,0003.09
2022-11-21 15:25:00,,0830.1,5.02,0.00,22.2,21.0,00.0,31.1,24.0,07.5,0000.0,0003.24,0007.00,0003.06
2022-11-21 15:26:00,,0830.1,4.99,0.00,22.2,21.0,00.0,31.1,24.0,07.5,0000.0,0003.22,0006.92,0003.06
2022-11-21 15:27:00,,0830.1,5.01,0.00,22.3,21.0,00.0,31.1,24.0,07.4,0000.0,0003.22,0005.59,0003.08
2022-11-21 15:28:00,,0830.1,4.99,0.00,22.3,21.0,00.0,31.1,24.1,07.3,0000.0,0003.20,0005.41,0003.05
2022-11-21 15:29:00,,0830.1,5.02,0.00,22.3,21.0,00.0,31.1,24.1,07.3,0000.0,0003.18,0005.39,0003.02
2022-11-21 15:30:00,,0830.1,4.99,0.00,22.3,21.1,00.0,31.1,24.1,07.3,0000.0,0003.14,0005.30,0002.96
2022-11-21 15:31:00,,0830.1,5.01,0.00,22.3,21.1,00.0,31.1,24.1,07.4,0000.0,0003.08,0004.31,0002.90
2022-11-21 15:32:00,,0830.1,4.99,0.00,22.3,21.1,00.0,31.1,24.0,07.9,0000.0,0003.02,0003.72,0002.85
2022-11-21 15:33:00,,0830.2,5.00,0.00,22.3,21.1,00.0,31.2,24.0,08.2,0000.0,0002.98,0003.65,0002.80
2022-11-21 15:34:00,,0830.2,5.01,0.00,22.3,21.1,00.0,31.2,24.1,08.2,0000.0,0002.94,0003.74,0002.77
2022-11-21 15:35:00,,0830.2,5.00,0.00,22.3,21.2,00.0,31.2,24.1,08.6,0000.0,0002.90,0003.73,0002.73
2022-11-21 15:36:00,,0830.2,4.99,0.00,22.3,21.2,00.0,31.2,24.1,09.0,0000.0,0002.86,0004.02,0002.67
2022-11-21 15:37:00,,0830.2,5.02,0.00,22.4,21.2,00.0,31.2,24.1,08.9,0000.0,0002.85,0005.41,0002.64
2022-11-21 15:38:00,,0830.3,4.98,0.00,22.4,21.2,00.0,31.2,24.2,09.0,0000.0,0002.82,0006.30,0002.59
2022-11-21 15:39:00,,0830.2,5.00,0.00,22.4,21.3,00.0,31.2,24.2,08.9,0000.0,0002.81,0006.47,0002.55
2022-11-21 15:40:00,,0830.2,5.00,0.00,22.4,21.3,00.0,31.2,24.3,08.8,0000.0,0002.80,0006.52,0002.52
2022-11-21 15:41:00,,0830.3,4.99,0.00,22.4,21.3,00.0,31.2,24.3,08.7,0000.0,0002.77,0006.45,0002.50
2022-11-21 15:42:00,,0830.2,5.00,0.00,22.5,21.4,00.0,31.3,24.3,08.6,0000.0,0002.78,0006.45,0002.50
2022-11-21 15:43:00,,0830.3,5.01,0.00,22.5,21.4,00.0,31.3,24.3,09.0,0000.0,0002.76,0006.45,0002.48
2022-11-21 15:44:00,,0830.3,4.98,0.00,22.5,21.4,00.0,31.3,24.4,08.7,0000.0,0002.75,0006.41,0002.47
2022-11-21 15:45:00,,0830.3,5.00,0.00,22.5,21.4,00.0,31.3,24.4,08.6,0000.0,0002.73,0006.19,0002.47
2022-11-21 15:46:00,,0830.3,5.01,0.00,22.5,21.5,00.0,31.3,24.4,08.7,0000.0,0002.76,0006.19,0002.49
2022-11-21 15:47:00,,0830.3,4.99,0.00,22.6,21.5,00.0,31.3,24.4,08.6,0000.0,0002.76,0006.13,0002.51
2022-11-21 15:48:00,,0830.3,5.00,0.00,22.6,21.5,00.0,31.3,24.5,08.5,0000.0,0002.78,0005.02,0002.54
2022-11-21 15:49:00,,0830.3,5.02,0.00,22.6,21.5,00.0,31.3,24.5,08.4,0000.0,0002.80,0003.70,0002.57
2022-11-21 15:50:00,,0830.3,4.98,0.00,22.6,21.5,00.0,31.4,24.5,08.2,0000.0,0002.79,0003.46,0002.61
2022-11-21 15:51:00,,0830.3,5.00,0.00,22.6,21.6,00.0,31.4,24.5,08.1,0000.0,0002.80,0003.44,0002.64
2022-11-21 15:52:00,,0830.4,5.01,0.00,22.6,21.6,00.0,31.4,24.5,08.3,0000.0,0002.88,0003.66,0002.69
2022-11-21 15:53:00,,0830.4,4.99,0.00,22.7,21.6,00.0,31.4,24.5,08.7,0000.0,0002.94,0003.83,0002.71
2022-11-21 15:54:00,,0830.4,4.99,0.00,22.7,21.6,00.0,31.4,24.5,08.9,0000.0,0002.96,0003.85,0002.74
2022-11-21 15:55:00,,0830.3,5.01,0.00,22.7,21.7,00.0,31.4,24.5,08.9,0000.0,0003.02,0003.98,0002.79
2022-11-21 15:56:00,,0830.3,4.99,0.00,22.7,21.7,00.0,31.5,24.5,08.8,0000.0,0003.07,0004.03,0002.82
2022-11-21 15:57:00,,0830.3,5.00,0.00,22.7,21.7,00.0,31.5,24.6,08.7,0000.0,0003.06,0004.11,0002.83
2022-11-21 15:58:00,,0830.3,5.00,0.00,22.7,21.7,00.0,31.5,24.6,08.7,0000.0,0003.08,0004.58,0002.84
2022-11-21 15:59:00,,0830.3,5.00,0.00,22.8,21.7,00.0,31.5,24.6,08.8,0000.0,0003.13,0005.60,0002.86
